Flag for Germany Weather past 2 weeks in Duisburg, North Rhine-Westphalia, Germany

Now
55 °F

Clear.


Feels Like: 54 °F
Forecast: 49 / 62 °F
Wind: 6 mph from West

Location: Duesseldorf

Current Time: Sep 3, 2015 at 9:42:52 PM

Latest Report: Sep 3, 2015 at 9:20 PM


Visibility: 10 mi

Pressure: 29.98 "Hg

Humidity: 82%

Dew point: 50 °F

Location of DuisburgLocation

Historic Weather in Duisburg — Graph

°F

Duisburg temperature yesterday

Maximum temperature yesterday: 66 °F (at 1:20 PM)
Minimum temperature yesterday: 52 °F (at 3:20 AM)
Average temperature yesterday: 58 °F

Past Weeks' High & Low Weather Summary

 TemperatureHumidityPressure
High90 °F (Aug 30, 3:20 PM)100% (Aug 27, 8:20 PM)30.24 "Hg (Aug 27, 8:20 PM)
Low52 °F (Aug 29, 2:20 AM)30% (Aug 22, 5:20 PM)29.50 "Hg (Aug 24, 4:50 PM)
Average67 °F71%29.96 "Hg
* Reported Aug 19 8:20 PM — Sep 3 8:20 PM, Duisburg, Weather by CustomWeather, © 2015

Note: Actual official high and low records may vary slightly from our data, if they occured in-between our weather recording intervals... More about our weather records

Advertising

Duisburg weather history for previous 24 hours

 ConditionsComfort  
Time TempWeatherWind HumidityBarometerVisibility
8:20 PM
Thu, Sep 3
57 °FPartly sunny.5 mph77%29.95 "HgN/A
7:50 PM57 °FPartly sunny.6 mph77%29.95 "HgN/A
7:20 PM57 °FSprinkles. Partly sunny.6 mph72%29.95 "HgN/A
6:50 PM57 °FSprinkles. Broken clouds.10 mph72%29.95 "HgN/A
6:20 PM59 °FPartly sunny.7 mph68%29.95 "HgN/A
5:50 PM61 °FBroken clouds.12 mph63%29.95 "HgN/A
5:20 PM64 °FScattered clouds.9 mph56%29.92 "HgN/A
4:50 PM64 °FScattered clouds.12 mph56%29.92 "HgN/A
4:20 PM64 °FPassing clouds.13 mph56%29.92 "HgN/A
3:50 PM64 °FPassing clouds.10 mph60%29.92 "HgN/A
3:20 PM64 °FPassing clouds.13 mph56%29.92 "HgN/A
2:50 PM64 °FScattered clouds.10 mph60%29.92 "HgN/A
2:20 PM64 °FScattered clouds.10 mph64%29.95 "HgN/A
1:50 PM61 °FScattered clouds.7 mph72%29.95 "HgN/A
1:20 PM61 °FScattered clouds.5 mph72%29.95 "HgN/A
12:50 PM61 °FSprinkles. Partly sunny.6 mph72%29.95 "HgN/A
12:20 PM59 °FSprinkles. Scattered clouds.5 mph82%29.95 "HgN/A
11:50 AM59 °FScattered clouds.2 mph82%29.95 "HgN/A
11:20 AM59 °FScattered clouds.5 mph82%29.95 "Hg4 mi
10:50 AM57 °FScattered clouds.6 mph88%29.98 "Hg4 mi
10:20 AM57 °FScattered clouds.7 mph94%29.98 "Hg4 mi
9:50 AM57 °FPassing clouds.6 mph94%29.95 "Hg4 mi
9:20 AM57 °FScattered clouds.6 mph94%29.98 "Hg4 mi
8:50 AM55 °FScattered clouds.3 mph100%29.95 "Hg4 mi
8:20 AM54 °FCool.5 mph100%29.95 "Hg2 mi
7:50 AM52 °FCool.6 mph100%29.95 "Hg2 mi
7:20 AM52 °FCool.1 mph94%29.95 "Hg1 mi
6:50 AM52 °FCool.1 mph94%29.95 "Hg2 mi
6:20 AM52 °FCool.2 mph94%29.95 "Hg1 mi
5:20 AM55 °FFog.3 mph94%29.98 "Hg4 mi
4:50 AM55 °FPassing clouds.2 mph94%29.98 "Hg4 mi
4:20 AM55 °FLight rain. Passing clouds.2 mph94%29.98 "Hg5 mi
3:50 AM55 °FPartly cloudy.3 mph94%29.98 "Hg5 mi
3:20 AM55 °FPassing clouds.3 mph94%29.98 "Hg5 mi
2:50 AM55 °FPassing clouds.3 mph94%29.98 "Hg6 mi
2:20 AM55 °FLight rain. Clear.3 mph94%29.98 "HgN/A
1:50 AM55 °FLight rain. Mostly cloudy.6 mph94%29.98 "HgN/A
1:20 AM57 °FLight rain. Mostly cloudy.3 mph82%29.98 "HgN/A
12:50 AM57 °FLight rain. Passing clouds.5 mph82%29.98 "HgN/A
12:20 AM57 °FLight rain. Partly cloudy.6 mph82%30.01 "HgN/A
11:20 PM
Wed, Sep 2
57 °FLight rain. Clear.6 mph82%30.01 "HgN/A
10:50 PM57 °FClear.3 mph77%30.01 "Hg10 mi
10:20 PM57 °FClear.3 mph77%30.01 "Hg10 mi
9:50 PM59 °FClear.5 mph77%30.01 "Hg10 mi
9:20 PM59 °FClear.5 mph77%30.01 "Hg10 mi
Weather by CustomWeather, © 2015

See weather overviewHow to use our weather pages